sat.trackr.live / text

‹ back to catalog

STARLINK-31400

NORAD 59405 · 2024-064H

PAYLOAD ACTIVE UNKNOWN

§ Identity

Operator
Country
US
Launch date
2024-04-05
Launch site
AFETR
Launch vehicle
Mass (kg)
RCS (m²)

Purposes: comms

External: N2YO · Heavens-Above · Gunter

§ Orbital elements

Epoch: 2026-09-21T16:18:54.876384Z

Period
94.27 min
Inclination
43.0052°
Eccentricity
0.0001641
Mean motion
15.27580770 rev/d
Perigee alt
481.9 km
Apogee alt
484.2 km
Semi-major
6,861.2 km
B*
3.5177e-5
RAAN
29.0029°
Arg perigee
279.2247°
Mean anomaly
80.8419°
Rev number
13,920

§ Raw data

STARLINK-314001 59405U 24064H   26264.67980181  .00000706  00000+0  35177-4 0  99982 59405  43.0052  29.0029 0001641 279.2247  80.8419 15.27580770139203

JSON: /api/v1/satellites/59405 · /tle

For live sub-satellite position, see the globe view (requires WebGL).

§ Visibility from observer

Set your observer location to see the next 7 days of passes ≥ 10°. The values pass through the URL so the page stays shareable.

No JS? Fill the form by hand. The geolocation button needs JavaScript.